Theta_e
285 286 286 286 286 287 287 287 288 288 288 288 288 289 289 290 290 290 290 291 291 290 290 289 289 289 291 289 289 290 290 289 289 288 288 288 288 287 289 288 287 288
283 284 285 285 285 285 285 286 286 286 286 287 288 288 289 289 290 289 289 289 290 290 290 289 288 288 288 288 288 287 288 288 288 289 287 286 286 286 287 286 286 286
283 283 283 283 283 283 283 284 285 285 285 285 286 287 288 288 288 288 288 288 289 289 289 289 288 288 287 286 286 286 287 287 287 288 286 286 286 285 286 286 286 286
283 283 283 283 283 283 283 283 283 284 284 284 284 285 286 286 286 286 287 287 287 287 287 287 288 288 286 286 285 286 286 286 287 286 286 286 285 285 285 285 285 285
282 283 283 283 282 282 282 282 282 283 283 283 284 284 285 285 285 284 284 285 285 286 286 286 286 287 287 287 286 287 286 287 286 285 285 286 286 286 286 285 284 284
282 282 282 282 282 282 282 282 282 283 283 283 283 283 284 284 284 284 284 284 284 285 285 285 286 286 286 286 286 287 287 287 287 284 285 285 286 286 286 285 284 284
281 281 281 281 280 280 280 281 282 282 282 282 282 282 283 283 283 283 283 283 283 284 284 285 285 286 286 286 286 286 286 286 286 285 285 285 285 285 285 284 284 284
281 281 281 281 280 280 280 280 281 281 281 282 282 282 282 282 282 283 283 283 283 283 284 284 284 284 285 286 286 286 286 287 287 286 285 285 285 285 285 285 285 284
280 280 280 280 280 279 279 279 279 279 280 280 281 281 282 282 282 282 282 282 282 282 282 283 283 283 284 284 285 285 285 286 286 286 285 285 285 285 285 285 285 284
279 279 279 279 279 279 279 278 279 279 279 279 280 281 281 282 281 281 281 281 281 281 281 282 282 283 283 283 283 283 284 284 284 285 285 285 285 285 285 285 285 284
278 278 278 279 279 279 278 278 278 278 278 278 279 279 280 280 281 281 281 281 281 280 281 281 281 282 282 282 283 283 283 283 283 284 284 284 285 285 286 285 285 284
276 277 278 278 279 279 278 279 279 279 278 278 278 279 279 279 279 280 280 280 280 280 280 280 280 281 281 282 282 282 282 282 282 282 283 283 284 284 284 284 285 285
277 277 277 277 278 278 278 278 279 278 278 278 278 278 278 279 279 279 280 279 280 280 280 280 280 280 280 280 281 281 281 282 282 282 282 282 283 283 283 283 284 284
277 277 278 278 278 278 278 278 278 278 278 278 277 277 278 278 278 279 279 279 280 280 280 280 279 279 279 280 280 280 281 281 281 281 282 282 282 282 282 283 283 284
278 278 279 278 278 278 278 278 278 278 278 277 277 277 278 278 278 278 279 279 279 279 279 279 279 280 280 279 279 280 280 280 281 281 281 282 282 282 282 282 283 283
276 277 277 277 278 278 278 278 278 278 278 278 277 277 277 277 277 277 278 278 278 279 279 279 279 280 282 284 285 282 281 281 281 281 281 281 281 281 281 282 282 282
276 277 277 277 278 278 277 277 278 278 278 277 277 277 277 277 277 276 277 277 277 277 278 279 279 280 283 285 285 286 284 282 281 281 280 281 281 281 281 281 281 282
277 277 277 278 278 278 278 278 277 277 277 277 277 277 277 276 276 276 277 277 277 277 277 277 278 281 283 284 285 285 286 283 282 281 281 280 280 280 280 280 281 281
277 277 277 277 277 277 277 277 277 277 277 277 276 276 276 276 276 276 276 276 276 276 276 277 277 281 282 283 284 284 285 284 282 281 280 280 280 280 280 280 280 280
276 276 276 276 276 275 276 275 275 275 275 275 275 275 275 275 275 275 275 275 275 275 275 276 276 279 282 282 283 283 284 284 281 281 280 280 280 280 280 280 280 280
274 274 273 273 273 274 273 273 273 273 273 274 274 274 274 274 274 274 274 274 274 275 274 275 275 279 281 281 282 282 283 283 280 280 280 280 280 280 280 280 280 281
272 271 271 271 271 271 270 270 270 271 271 271 272 272 272 272 273 273 273 273 273 273 273 273 274 278 279 280 280 281 282 279 278 278 278 278 278 279 279 280 280 280
270 269 268 268 268 267 267 268 268 268 268 269 268 269 269 269 269 270 271 271 271 271 271 271 272 275 278 278 279 280 280 277 276 276 276 276 276 277 278 278 279 280
267 266 265 265 265 265 265 265 265 265 265 267 266 266 266 267 268 268 269 269 270 270 270 270 271 274 277 278 279 279 279 275 275 274 274 274 275 276 277 278 279 281
264 263 263 263 262 263 262 262 262 263 264 264 264 265 264 265 266 265 266 266 267 268 270 270 269 271 275 276 277 277 276 273 273 272 272 272 273 273 275 275 276 279
262 262 261 261 261 261 261 261 262 262 262 262 262 262 262 262 263 263 263 264 265 266 266 267 267 268 270 274 275 276 277 273 272 272 271 271 272 272 272 273 274 275
Wind_Speed
7 6 6 6 6 6 6 7 7 7 6 6 6 6 6 6 6 6 6 6 6 4 4 4 3 3 4 4 4 4 4 6 6 5 6 6 7 7 9 8 7 8
7 6 6 5 6 6 6 5 5 5 5 5 5 5 6 6 7 6 7 7 6 6 5 4 4 4 4 4 4 4 5 5 6 4 5 5 7 6 8 8 9 8
5 6 5 6 6 6 6 6 5 6 6 5 5 6 6 5 7 6 6 6 6 7 6 5 5 5 4 4 4 4 4 5 6 6 5 6 6 6 7 7 7 8
7 5 5 5 6 7 7 8 8 7 7 8 8 7 6 6 6 6 6 6 6 7 7 7 6 6 5 5 4 4 4 5 5 5 6 6 5 6 6 6 7 7
5 5 4 4 4 4 4 4 6 6 7 7 7 8 8 8 8 8 8 8 7 7 7 7 6 6 6 6 5 5 5 6 5 4 5 6 7 5 6 5 6 7
4 4 5 6 5 6 7 6 6 6 6 7 8 7 8 8 8 8 9 9 9 8 8 7 7 7 6 6 6 5 6 6 6 4 5 6 7 6 5 5 6 7
3 3 4 3 4 4 4 4 5 4 5 4 4 6 6 8 9 9 9 8 8 8 8 8 8 8 7 6 6 6 6 5 5 5 5 6 5 7 5 5 6 7
4 4 4 4 5 5 6 6 6 7 6 7 6 5 4 7 7 6 7 9 8 9 9 8 7 8 8 7 7 8 7 5 6 6 6 6 5 6 6 6 6 7
2 3 3 3 3 3 4 4 4 4 5 7 8 9 8 6 7 7 7 7 7 8 9 9 9 8 7 7 7 8 8 8 7 6 7 7 7 7 7 6 6 7
2 2 1 1 2 1 2 2 3 3 4 5 5 5 7 8 8 7 7 8 7 7 7 7 9 9 9 8 7 6 7 9 8 7 7 7 7 8 8 7 8 8
2 2 3 4 4 3 3 3 4 3 3 4 4 5 5 6 7 6 6 7 8 8 8 8 7 7 8 9 9 7 7 7 8 8 8 8 7 7 7 8 8 8
4 4 5 6 7 6 6 6 7 6 5 5 4 6 6 5 6 6 5 6 6 7 7 7 7 7 7 8 8 8 8 7 6 7 7 8 8 8 8 7 8 9
5 5 5 5 5 5 5 6 7 7 6 7 6 5 7 7 7 7 6 5 7 6 6 7 8 7 8 8 8 8 8 8 9 8 8 7 7 8 8 8 9 9
6 5 6 6 6 5 5 6 6 6 6 6 5 7 7 7 8 8 8 6 8 7 7 7 7 7 8 8 8 8 7 8 8 9 9 9 8 8 7 8 9 9
6 6 6 8 9 9 10 9 8 7 7 6 6 7 7 7 7 8 9 9 8 8 9 8 8 9 7 7 8 9 8 9 9 9 10 10 10 10 9 9 8 8
4 5 6 7 9 10 11 11 11 11 11 11 10 9 8 7 8 8 8 9 10 11 10 9 9 8 9 14 13 10 9 9 9 9 9 9 10 11 10 10 10 9
4 5 6 8 8 8 8 9 11 11 10 11 11 10 10 10 9 10 10 10 10 11 12 11 10 10 15 18 20 22 14 11 10 10 9 10 10 11 12 11 10 10
6 7 8 9 8 9 9 9 9 9 10 11 11 11 10 8 10 11 11 11 11 11 12 12 12 13 21 21 22 23 20 13 10 10 10 11 11 11 11 11 11 11
7 7 8 8 8 8 9 9 10 11 12 11 11 10 8 10 12 12 12 12 11 13 13 13 13 16 23 24 23 24 24 20 11 11 12 12 13 13 12 12 10 10
8 8 8 9 8 9 10 10 11 11 10 9 9 9 10 12 13 14 14 14 13 14 13 14 15 17 25 26 25 26 26 21 12 13 13 13 14 13 12 13 13 12
9 9 9 9 10 10 10 11 11 11 12 11 10 12 13 13 14 15 15 15 15 14 14 15 15 23 26 27 27 28 27 23 13 13 12 12 13 13 14 14 14 13
8 10 10 10 11 11 11 12 12 12 13 12 12 12 12 13 14 13 15 16 16 15 15 17 17 26 28 28 29 28 29 17 13 13 14 14 14 14 13 13 13 14
9 9 10 11 11 12 12 12 12 12 12 10 12 12 13 13 14 14 14 15 17 17 17 17 18 24 30 30 29 30 23 14 13 12 13 15 16 16 16 15 15 14
9 9 11 12 11 11 12 12 12 11 11 10 11 13 13 13 12 14 14 14 16 17 16 17 18 24 31 31 32 31 25 17 13 13 14 16 16 17 16 15 16 23
9 10 10 11 12 12 11 13 13 12 11 11 10 11 13 12 13 12 14 15 15 16 22 23 18 22 30 31 32 31 24 16 14 13 15 15 15 16 16 15 17 16
8 10 10 10 12 13 12 11 10 10 10 11 12 11 12 12 12 12 16 15 13 13 14 15 17 17 21 31 30 31 30 20 15 14 15 15 15 14 15 15 16 16
Wind_Direction
18 10 6 6 6 6 4 4 360 4 359 356 2 344 347 334 345 351 344 344 346 328 315 306 298 288 276 279 275 273 268 262 267 260 251 242 243 239 241 239 234 227
17 15 12 10 16 14 12 11 3 6 356 358 352 346 346 351 349 354 347 343 340 344 340 337 325 306 297 288 282 278 275 273 270 267 260 256 250 244 246 243 240 238
12 14 15 19 13 11 10 5 12 6 4 349 351 1 353 355 352 354 351 344 341 344 347 343 334 323 310 299 295 288 278 277 275 272 262 258 255 246 249 248 250 242
2 3 2 2 8 9 5 10 7 8 1 4 359 348 355 350 352 351 345 348 350 349 347 346 341 329 321 305 302 290 275 272 264 275 278 276 262 249 254 248 252 261
356 356 0 5 2 0 358 10 9 4 5 356 354 356 356 355 352 352 354 352 354 347 345 344 339 333 327 320 310 298 285 274 276 270 270 272 272 265 258 247 254 255
352 360 3 7 6 8 9 11 3 4 1 4 1 357 358 355 354 354 353 351 349 349 345 343 340 331 330 321 316 299 287 285 274 273 271 268 273 270 265 261 259 259
342 348 359 349 8 9 17 4 2 2 0 353 346 3 1 356 355 352 350 348 346 347 346 342 340 335 331 330 322 310 301 283 282 277 270 270 267 275 273 266 263 261
345 346 355 2 12 11 13 6 4 359 351 355 7 354 6 353 352 348 348 348 348 345 344 340 337 333 331 332 327 323 313 307 297 287 279 273 269 271 271 266 260 264
311 328 343 353 10 352 6 356 355 354 1 6 355 350 350 359 347 345 343 346 347 343 342 341 337 331 326 327 322 320 315 310 304 296 289 285 279 270 267 265 267 261
286 279 336 312 342 296 353 321 344 349 356 5 353 347 347 337 345 341 342 342 340 338 338 335 333 331 329 326 316 310 310 307 307 300 289 282 279 278 275 269 261 263
295 303 348 337 333 316 327 331 342 339 354 351 345 340 327 329 325 333 331 336 334 329 327 326 323 320 321 320 318 315 303 297 296 297 293 287 278 273 268 266 265 259
327 349 351 344 337 332 335 338 339 338 334 333 332 321 314 308 306 306 308 306 311 311 310 306 307 309 308 307 309 310 310 301 290 283 284 284 283 279 275 266 262 263
341 341 341 340 333 321 323 332 329 323 323 316 314 309 306 304 300 297 291 287 287 288 290 294 302 302 299 295 297 300 301 303 301 297 289 281 275 275 275 274 270 268
338 334 340 335 329 324 319 316 312 306 297 290 296 298 296 295 296 297 295 292 283 279 274 277 278 282 284 290 291 286 284 288 290 292 292 290 288 279 270 266 267 266
333 340 336 338 334 330 326 321 315 306 299 294 289 288 289 287 288 289 294 295 287 279 280 276 273 269 266 267 278 283 284 283 282 279 280 284 284 284 282 278 271 264
327 325 325 322 324 321 319 318 317 316 315 313 309 302 297 296 293 292 291 291 296 296 291 287 278 272 263 263 261 266 268 267 270 273 273 274 276 279 277 274 275 275
320 311 311 313 307 310 307 308 307 307 308 306 304 303 302 302 299 298 298 295 295 296 296 293 287 282 275 276 276 274 271 269 267 269 266 264 266 268 272 272 269 268
317 314 312 307 311 306 304 301 301 301 300 299 299 300 299 296 295 292 292 294 293 293 289 287 286 281 283 283 279 276 272 267 267 267 266 266 262 259 261 263 267 267
322 318 313 313 314 313 310 310 307 304 302 302 301 301 302 298 294 295 292 290 287 286 286 285 284 281 283 285 285 283 281 278 271 268 268 267 265 263 261 262 260 259
328 327 326 327 329 325 320 315 314 309 309 310 309 308 302 299 297 294 294 291 289 286 283 283 281 280 284 285 284 284 283 282 274 271 268 264 262 261 262 262 260 257
342 341 334 329 326 323 321 318 315 313 312 312 311 306 303 300 299 299 296 294 291 289 287 284 281 282 283 285 285 285 286 286 282 279 276 273 268 263 260 259 257 256
344 332 326 325 323 321 316 312 309 308 308 311 308 303 299 298 294 293 292 292 291 290 289 286 285 286 287 287 289 289 290 289 287 284 283 280 276 272 265 261 258 254
337 331 326 324 321 315 310 308 310 311 309 312 304 299 297 295 294 292 292 291 291 289 287 287 287 288 290 292 293 293 293 290 288 286 283 283 281 281 277 271 265 257
341 334 324 320 317 313 312 312 312 307 301 306 300 300 295 293 295 294 290 288 287 288 287 288 287 289 291 293 294 294 294 293 293 291 286 284 282 280 280 277 272 266
331 326 320 316 314 311 312 309 308 305 303 304 298 298 296 300 300 296 293 290 288 289 292 291 291 292 293 294 294 293 293 290 288 283 282 279 280 281 281 280 279 275
321 317 313 312 310 307 305 300 301 302 302 304 300 296 293 292 293 290 291 289 292 294 294 295 295 295 296 295 295 294 293 292 287 284 279 280 278 279 282 278 276 274